Location: *
(37.9500°N, 27.3666°E)
Time: 12:43:40
(UTC+00:00)

Meteor 1-21 Rocket - Pass Details

Date: 24 October 2021
Orbit: 834 x 906 km, 81.2° (Epoch: 02 December)

Event Time Altitude Azimuth Distance (km) Brightness Sun altitude
Rises 15:46:05 0° 351° (N) 3,519 7.4 -5.7°
Reaches altitude 10° 15:48:32 10° 352° (N) 2,582 6.7 -6.1°
Maximum altitude 15:54:27 88° 81° (E) 911 4.4 -7.3°
Drops below altitude 10° 16:00:22 10° 172° (S) 2,579 6.7 -8.4°
Sets 16:02:49 0° 172° (S) 3,515 7.4 -8.9°
